カタログに戻る

HISPASAT 30W-6

運用中通信GEO
NORAD 43228·PAYLOAD·🇪🇸 Spain

打ち上げ Mar 6, 2018 から Cape Canaveral Space Force Station

Loading…

TLE

最新Source: Space-Track

元期: Sep 14, 2026, 10:14 UTC

1 43228U 18023A   26257.42666450 -.00000224  00000-0  00000-0 0  9997
2 43228   0.0472  40.2775 0003402  98.8354 337.8907  1.00270456 31304

AllMySatでHISPASAT 30W-6をリアルタイム追跡

Download on the App Store